Location: Vienna
(48.2082°N, 16.3738°E)
Time: 09:52:10
(UTC+02:00)

ISS - Pass Details

Date: 20 July 2018
Orbit: 402 x 408 km, 51.6° (Epoch: 23 July)

Event Time Altitude Azimuth Distance (km) Brightness Sun altitude
Rises 00:37:47 0° 269° (W) 2,323 0.1 -20.9°
Reaches altitude 10° 00:39:55 10° 275° (W) 1,465 -0.9 -20.9°
Maximum altitude 00:43:07 48° 351° (N) 542 -2.8 -21.0°
Drops below altitude 10° 00:46:19 10° 68° (ENE) 1,471 -0.8 -21.0°
Sets 00:48:27 0° 74° (ENE) 2,333 0.2 -21.0°
